Fort Polk, LA

10:14 PM CDT on April 23, 2018 (GMT -0500)
Fort Polk

Weather History for KAQV - June, 2013

Change the Weather History Date:

Monday, June 24, 2013

  Actual Average (KPOE) Record (KPOE)
Temperature  
Mean Temperature 82 °F -  
Max Temperature 91 °F 86 °F 99 °F (2012)
Min Temperature 73 °F 69 °F 64 °F (2001)
Cooling Degree Days 17    
Growing Degree Days 32 (Base 50)    
Moisture  
Dew Point 72 °F    
Average Humidity 77    
Maximum Humidity 97    
Minimum Humidity 50    
Precipitation  
Precipitation 0.00 in - - ()
Sea Level Pressure  
Sea Level Pressure 30.04 in    
Wind  
Wind Speed 2 mph (South)    
Max Wind Speed 9 mph    
Max Gust Speed -    
Visibility 9 miles    
Events      
Averages and records for this station are not official NWS values.
T = Trace of Precipitation, MM = Missing Value Source: NWS Daily Summary

Daily Weather History Graph

Daily Weather History Graph

Search for Another Location

Airport or City:

Astronomy

Jun. 24, 2013 Rise Set
Actual Time 6:09 AM CDT 8:21 PM CDT
Civil Twilight 5:41 AM CDT 8:49 PM CDT
Nautical Twilight 5:07 AM CDT 9:23 PM CDT
Astronomical Twilight 4:30 AM CDT 10:00 PM CDT
Moon 9:32 PM CDT 7:31 AM CDT
Length of Visible Light 15h 07m
Length of Day
14h 11m
Full, 98% of the Moon is Illuminated
Jun 24
Full
Jun 29
Last Quarter
Jul 8
New
Jul 15
First Quarter
Jul 22
Full

Hourly Weather History & Observations

Time (CDT) Temp. Heat Index Dew Point Humidity Pressure Visibility Wind Dir Wind Speed Gust Speed Precip Events Conditions
12:56 AM 75.0 °F - 73.0 °F 94% 30.03 in 9.0 mi Calm Calm - N/A   Clear
1:56 AM 73.9 °F - 73.0 °F 97% 30.03 in 7.0 mi Calm Calm - N/A   Clear
2:56 AM 73.0 °F - 72.0 °F 96% 30.03 in 6.0 mi Calm Calm - N/A   Clear
3:56 AM 73.0 °F - 71.1 °F 93% 30.03 in 6.0 mi Calm Calm - N/A   Clear
4:56 AM 73.0 °F - 72.0 °F 96% 30.04 in 6.0 mi Calm Calm - N/A   Partly Cloudy
5:56 AM 73.0 °F - 72.0 °F 96% 30.05 in 6.0 mi Calm Calm - N/A   Clear
6:56 AM 73.9 °F - 72.0 °F 93% 30.06 in 6.0 mi Calm Calm - N/A   Clear
7:56 AM 78.1 °F - 73.9 °F 87% 30.08 in 9.0 mi South 3.5 mph - N/A   Clear
8:56 AM 82.0 °F 88.6 °F 75.0 °F 79% 30.09 in 10.0 mi Variable 3.5 mph - N/A   Clear
9:56 AM 84.0 °F 91.2 °F 73.9 °F 72% 30.09 in 10.0 mi SSW 4.6 mph - N/A   Scattered Clouds
10:56 AM 87.1 °F 94.5 °F 73.0 °F 63% 30.09 in 10.0 mi Variable 6.9 mph - N/A   Partly Cloudy
11:56 AM 89.1 °F 98.0 °F 73.9 °F 61% 30.08 in 10.0 mi Variable 6.9 mph - N/A   Scattered Clouds
12:56 PM 90.0 °F 96.4 °F 71.1 °F 54% 30.06 in 10.0 mi Calm Calm - N/A   Partly Cloudy
1:56 PM 90.0 °F 95.4 °F 70.0 °F 52% 30.04 in 10.0 mi Variable 5.8 mph - N/A   Scattered Clouds
2:56 PM 91.0 °F 96.6 °F 70.0 °F 50% 30.03 in 10.0 mi South 9.2 mph - N/A   Partly Cloudy
3:56 PM 90.0 °F 95.4 °F 70.0 °F 52% 30.03 in 10.0 mi Variable 5.8 mph - N/A   Scattered Clouds
4:56 PM 87.1 °F 93.6 °F 72.0 °F 61% 30.02 in 10.0 mi Variable 6.9 mph - N/A   Mostly Cloudy
5:56 PM 87.1 °F 93.6 °F 72.0 °F 61% 30.01 in 10.0 mi Variable 5.8 mph - N/A   Clear
6:56 PM 84.9 °F 90.7 °F 72.0 °F 65% 30.02 in 10.0 mi SSE 9.2 mph - N/A   Partly Cloudy
7:56 PM 81.0 °F 85.2 °F 72.0 °F 74% 30.03 in 10.0 mi SSE 4.6 mph - N/A   Clear
8:56 PM 78.1 °F - 73.0 °F 84% 30.02 in 10.0 mi Calm Calm - N/A   Clear
9:56 PM 77.0 °F - 73.0 °F 88% 30.01 in 10.0 mi Calm Calm - N/A   Clear
10:56 PM 77.0 °F - 73.0 °F 88% 30.01 in 10.0 mi Variable 3.5 mph - N/A   Clear
11:56 PM 75.9 °F - 73.0 °F 91% 30.05 in 10.0 mi Calm Calm - N/A   Clear